Weather History for Clinton, IA

Change the Weather History Date:

Sunday, March 16, 2014

  Actual Average Record
Temperature  
Mean Temperature 24 °F -  
Max Temperature 30 °F 47 °F 80 °F (2012)
Min Temperature 17 °F 28 °F 10 °F (1951)
Degree Days  
Heating Degree Days 42    
Moisture  
Dew Point 14 °F    
Average Humidity 67    
Maximum Humidity 93    
Minimum Humidity 47    
Precipitation  
Precipitation 0.00 in - - ()
Sea Level Pressure  
Sea Level Pressure 30.29 in    
Wind  
Wind Speed 18 mph (ENE)    
Max Wind Speed 26 mph    
Max Gust Speed 32 mph    
Visibility 10 miles    
Events      
Averages and records for this station are not official NWS values.
T = Trace of Precipitation, MM = Missing Value Source: NWS Daily Summary

Daily Weather History Graph

Daily Weather History Graph

Search for Another Location

Airport:

Trip Planner

Search our weather history database for the weather conditions in past years. The results will help you decide how hot, cold, wet, or windy it might be!

Date:

Astronomy

Mar. 16, 2014 Rise Set
Actual Time 7:11 AM CDT 7:09 PM CDT
Civil Twilight 6:43 AM CDT 7:36 PM CDT
Nautical Twilight 6:11 AM CDT 8:09 PM CDT
Astronomical Twilight 5:38 AM CDT 8:42 PM CDT
Moon 7:27 PM CDT (3/16) 6:54 AM CDT (3/16)
Length of Visible Light 12h 53m
Length of Day
11h 57m
Full, 100% of the Moon is Illuminated
Mar 16
Full
Mar 16
Full
Mar 23
Last Quarter
Mar 30
New
Apr 7
First Quarter

Hourly Weather History & Observations

Time (CDT) Temp. Windchill Dew Point Humidity Pressure Visibility Wind Dir Wind Speed Gust Speed Precip Events Conditions
12:15 AM 30.2 °F 19.8 °F 26.6 °F 86% 30.23 in 10.0 mi NE 13.8 mph - N/A   Mostly Cloudy
12:35 AM 30.2 °F 19.8 °F 26.6 °F 86% 30.24 in 10.0 mi NE 13.8 mph - N/A   Mostly Cloudy
12:55 AM 30.2 °F 19.3 °F 28.4 °F 93% 30.25 in 10.0 mi ENE 15.0 mph - N/A   Overcast
1:15 AM 30.2 °F 18.5 °F 26.6 °F 86% 30.25 in 10.0 mi ENE 17.3 mph - N/A   Overcast
1:35 AM 30.2 °F 17.4 °F 24.8 °F 80% 30.27 in 10.0 mi ENE 20.7 mph - N/A   Overcast
1:55 AM 30.2 °F 19.3 °F 24.8 °F 80% 30.29 in 10.0 mi ENE 15.0 mph - N/A   Overcast
2:15 AM 28.4 °F 15.4 °F 24.8 °F 86% 30.29 in 7.0 mi ENE 19.6 mph - N/A   Overcast
2:35 AM 28.4 °F 16.2 °F 24.8 °F 86% 30.28 in 4.0 mi ENE 17.3 mph 25.3 mph N/A   Overcast
2:55 AM 28.4 °F 15.8 °F 24.8 °F 86% 30.28 in 5.0 mi ENE 18.4 mph 21.9 mph N/A   Overcast
3:15 AM 28.4 °F 14.1 °F 23.0 °F 80% 30.28 in 10.0 mi ENE 24.2 mph 28.8 mph N/A   Overcast
3:35 AM 26.6 °F 13.4 °F 21.2 °F 80% 30.28 in 10.0 mi ENE 18.4 mph 24.2 mph N/A   Overcast
3:55 AM 26.6 °F 12.0 °F 19.4 °F 74% 30.29 in 10.0 mi ENE 23.0 mph - N/A   Overcast
4:15 AM 26.6 °F 11.4 °F 19.4 °F 74% 30.29 in 10.0 mi ENE 25.3 mph 29.9 mph N/A   Mostly Cloudy
4:35 AM 24.8 °F 9.3 °F 17.6 °F 74% 30.29 in 10.0 mi ENE 24.2 mph 28.8 mph N/A   Mostly Cloudy
4:55 AM 24.8 °F 9.0 °F 17.6 °F 74% 30.30 in 10.0 mi ENE 25.3 mph 32.2 mph N/A   Mostly Cloudy
5:15 AM 24.8 °F 9.0 °F 17.6 °F 74% 30.31 in 10.0 mi ENE 25.3 mph 32.2 mph N/A   Mostly Cloudy
5:35 AM 24.8 °F 9.3 °F 15.8 °F 69% 30.31 in 10.0 mi ENE 24.2 mph 32.2 mph N/A   Mostly Cloudy
5:55 AM 23.0 °F 6.9 °F 15.8 °F 74% 30.32 in 10.0 mi ENE 24.2 mph - N/A   Overcast
6:15 AM 23.0 °F 6.9 °F 15.8 °F 74% 30.32 in 10.0 mi ENE 24.2 mph 31.1 mph N/A   Overcast
6:35 AM 21.2 °F 3.9 °F 15.8 °F 80% 30.32 in 10.0 mi ENE 26.5 mph 29.9 mph N/A   Overcast
6:55 AM 21.2 °F 4.9 °F 14.0 °F 74% 30.33 in 10.0 mi ENE 23.0 mph 28.8 mph N/A   Overcast
7:15 AM 21.2 °F 4.2 °F 14.0 °F 74% 30.33 in 10.0 mi NE 25.3 mph 29.9 mph N/A   Overcast
7:35 AM 21.2 °F 6.0 °F 12.2 °F 68% 30.34 in 10.0 mi ENE 19.6 mph 28.8 mph N/A   Overcast
7:55 AM 19.4 °F 3.2 °F 12.2 °F 74% 30.34 in 10.0 mi ENE 20.7 mph 25.3 mph N/A   Scattered Clouds
8:15 AM 19.4 °F 2.1 °F 10.4 °F 68% 30.35 in 10.0 mi NE 24.2 mph - N/A   Clear
8:35 AM 19.4 °F 2.5 °F 10.4 °F 68% 30.35 in 10.0 mi ENE 23.0 mph 29.9 mph N/A   Clear
8:55 AM 19.4 °F 3.2 °F 10.4 °F 68% 30.35 in 10.0 mi ENE 20.7 mph 28.8 mph N/A   Partly Cloudy
9:15 AM 19.4 °F 2.8 °F 10.4 °F 68% 30.35 in 10.0 mi ENE 21.9 mph 28.8 mph N/A   Scattered Clouds
9:35 AM 19.4 °F 3.2 °F 10.4 °F 68% 30.36 in 10.0 mi ENE 20.7 mph - N/A   Mostly Cloudy
9:55 AM 19.4 °F 4.1 °F 12.2 °F 74% 30.36 in 10.0 mi ENE 18.4 mph 25.3 mph N/A   Mostly Cloudy
10:15 AM 19.4 °F 3.6 °F 10.4 °F 68% 30.36 in 10.0 mi ENE 19.6 mph - N/A   Mostly Cloudy
10:35 AM 21.2 °F 5.2 °F 12.2 °F 68% 30.37 in 10.0 mi ENE 21.9 mph 27.6 mph N/A   Mostly Cloudy
10:55 AM 23.0 °F 7.6 °F 12.2 °F 63% 30.37 in 10.0 mi ENE 21.9 mph 26.5 mph N/A   Mostly Cloudy
11:15 AM 23.0 °F 7.6 °F 12.2 °F 63% 30.39 in 10.0 mi ENE 21.9 mph 28.8 mph N/A   Mostly Cloudy
11:35 AM 23.0 °F 8.0 °F 12.2 °F 63% 30.39 in 10.0 mi ENE 20.7 mph 27.6 mph N/A   Mostly Cloudy
11:55 AM 24.8 °F 10.0 °F 12.2 °F 59% 30.39 in 10.0 mi NE 21.9 mph 27.6 mph N/A   Mostly Cloudy
12:15 PM 24.8 °F 11.5 °F 12.2 °F 59% 30.39 in 10.0 mi ENE 17.3 mph 21.9 mph N/A   Mostly Cloudy
12:35 PM 26.6 °F 14.3 °F 14.0 °F 59% 30.39 in 10.0 mi NE 16.1 mph 24.2 mph N/A   Mostly Cloudy
12:55 PM 24.8 °F 11.5 °F 12.2 °F 59% 30.38 in 10.0 mi NE 17.3 mph 23.0 mph N/A   Mostly Cloudy
1:15 PM 26.6 °F 13.8 °F 14.0 °F 59% 30.37 in 10.0 mi NE 17.3 mph 23.0 mph N/A   Mostly Cloudy
1:35 PM 26.6 °F 13.8 °F 12.2 °F 55% 30.36 in 10.0 mi NE 17.3 mph 26.5 mph N/A   Scattered Clouds
1:55 PM 26.6 °F 14.3 °F 15.8 °F 64% 30.35 in 10.0 mi NE 16.1 mph 23.0 mph N/A   Mostly Cloudy
2:15 PM 28.4 °F 15.1 °F 14.0 °F 55% 30.33 in 10.0 mi ENE 20.7 mph 26.5 mph N/A   Partly Cloudy
2:35 PM 28.4 °F 16.2 °F 12.2 °F 51% 30.31 in 10.0 mi ENE 17.3 mph - N/A   Clear
2:55 PM 28.4 °F 16.6 °F 12.2 °F 51% 30.32 in 10.0 mi ENE 16.1 mph 23.0 mph N/A   Clear
3:15 PM 28.4 °F 17.0 °F 14.0 °F 55% 30.31 in 10.0 mi ENE 15.0 mph - N/A   Partly Cloudy
3:35 PM 28.4 °F 15.4 °F 12.2 °F 51% 30.29 in 10.0 mi ENE 19.6 mph 26.5 mph N/A   Partly Cloudy
3:55 PM 28.4 °F 15.4 °F 12.2 °F 51% 30.27 in 10.0 mi ENE 19.6 mph 24.2 mph N/A   Clear
4:15 PM 28.4 °F 15.8 °F 12.2 °F 51% 30.27 in 10.0 mi NE 18.4 mph 26.5 mph N/A   Clear
4:35 PM 28.4 °F 16.6 °F 12.2 °F 51% 30.26 in 10.0 mi ENE 16.1 mph 20.7 mph N/A   Clear
4:55 PM 28.4 °F 15.4 °F 12.2 °F 51% 30.25 in 10.0 mi ENE 19.6 mph 24.2 mph N/A   Clear
5:15 PM 28.4 °F 16.2 °F 10.4 °F 47% 30.24 in 10.0 mi NE 17.3 mph 23.0 mph N/A   Clear
5:35 PM 26.6 °F 13.1 °F 10.4 °F 51% 30.23 in 10.0 mi ENE 19.6 mph - N/A   Clear
5:55 PM 26.6 °F 13.8 °F 10.4 °F 51% 30.25 in 10.0 mi ENE 17.3 mph - N/A   Clear
6:15 PM 26.6 °F 15.7 °F 10.4 °F 51% 30.26 in 10.0 mi ENE 12.7 mph - N/A   Clear
6:35 PM 26.6 °F 15.7 °F 10.4 °F 51% 30.24 in 10.0 mi ENE 12.7 mph - N/A   Clear
6:55 PM 24.8 °F 12.4 °F 10.4 °F 54% 30.24 in 10.0 mi ENE 15.0 mph 18.4 mph N/A   Clear
7:15 PM 24.8 °F 13.4 °F 10.4 °F 54% 30.23 in 10.0 mi ENE 12.7 mph - N/A   Clear
7:35 PM 23.0 °F 10.6 °F 10.4 °F 59% 30.24 in 10.0 mi NE 13.8 mph - N/A   Clear
7:55 PM 21.2 °F 10.1 °F 10.4 °F 63% 30.23 in 10.0 mi ENE 10.4 mph - N/A   Clear
8:15 PM 21.2 °F 10.1 °F 10.4 °F 63% 30.23 in 10.0 mi ENE 10.4 mph - N/A   Clear
8:35 PM 21.2 °F 10.9 °F 10.4 °F 63% 30.22 in 10.0 mi ENE 9.2 mph - N/A   Clear
8:55 PM 21.2 °F 10.9 °F 10.4 °F 63% 30.22 in 10.0 mi ENE 9.2 mph - N/A   Clear
9:15 PM 19.4 °F 9.5 °F 10.4 °F 68% 30.21 in 10.0 mi ENE 8.1 mph - N/A   Clear
9:35 PM 17.6 °F 9.3 °F 10.4 °F 73% 30.21 in 10.0 mi East 5.8 mph - N/A   Clear
9:55 PM 17.6 °F 9.3 °F 10.4 °F 73% 30.21 in 10.0 mi East 5.8 mph - N/A   Clear
10:15 PM 19.4 °F 10.4 °F 8.6 °F 63% 30.21 in 10.0 mi East 6.9 mph - N/A   Clear
10:35 PM 17.6 °F 8.2 °F 8.6 °F 68% 30.21 in 10.0 mi East 6.9 mph - N/A   Clear
10:55 PM 17.6 °F 8.2 °F 8.6 °F 68% 30.23 in 10.0 mi ENE 6.9 mph - N/A   Clear
11:15 PM 17.6 °F 8.2 °F 8.6 °F 68% 30.21 in 10.0 mi East 6.9 mph - N/A   Clear
11:35 PM 17.6 °F 6.4 °F 10.4 °F 73% 30.18 in 10.0 mi ESE 9.2 mph - N/A   Clear
11:55 PM 17.6 °F 8.2 °F 10.4 °F 73% 30.18 in 10.0 mi East 6.9 mph - N/A   Clear